RH
61 61 62 62 63 68 73 76 79 80 88 88 89 87 81 82 73 70 69 69 66 61 62 69 69 67 75 91 88 54 45 54 60 67 65 74 94 87 76 79 77 83 76 68 65 63 81
60 60 60 61 62 61 64 67 73 75 80 84 91 87 82 85 76 74 71 69 64 66 70 66 69 70 87 95 55 50 48 65 63 70 81 72 85 84 78 69 91 78 71 67 72 67 76
59 59 59 59 60 59 60 62 64 71 74 78 84 91 84 87 81 77 71 67 66 67 70 67 69 65 85 79 59 60 54 57 65 72 91 72 82 89 70 82 72 69 85 74 77 76 91
66 66 65 64 60 59 61 62 63 64 68 74 79 92 86 84 86 81 74 71 68 69 72 69 66 75 91 60 67 60 54 53 76 75 78 76 79 85 85 91 96 89 86 94 78 77 86
65 62 61 63 62 61 60 61 62 63 65 67 74 92 88 85 86 78 73 69 70 72 71 70 82 89 87 55 62 56 64 59 74 85 87 70 80 85 87 98 95 92 90 92 85 79 94
62 61 61 60 61 61 62 61 61 62 63 66 77 89 89 86 87 85 72 72 74 74 73 68 71 91 69 72 68 63 62 61 71 80 81 82 90 97 97 97 97 96 95 94 92 87 84
67 66 65 64 63 63 63 63 62 61 62 64 68 82 92 89 87 76 80 83 86 92 83 80 77 77 69 66 70 65 61 64 71 80 96 91 100 100 91 87 81 91 87 97 90 83 89
66 65 64 65 64 63 63 63 63 63 61 63 72 80 90 86 86 79 85 91 70 69 71 72 72 75 74 77 84 63 65 71 77 95 90 89 99 93 87 90 82 81 93 96 89 87 86
66 67 65 66 65 64 64 65 64 65 62 62 69 79 89 87 82 88 87 82 67 67 78 78 76 76 79 78 81 75 77 78 85 90 91 93 88 80 89 85 84 85 80 89 84 86 84
64 67 66 67 66 66 65 65 64 64 64 64 70 76 90 88 88 85 88 72 72 66 93 82 91 79 76 81 76 68 79 82 76 91 89 91 83 84 96 84 90 88 77 73 86 87 94
67 67 67 67 68 69 70 66 65 62 65 69 70 79 88 80 94 92 79 73 71 69 84 70 88 72 81 83 64 72 77 76 88 86 86 92 87 82 96 96 83 91 82 83 80 91 92
70 69 71 71 70 70 70 68 67 62 65 68 70 76 82 94 94 88 72 67 69 89 78 94 86 88 87 82 80 81 82 76 82 86 81 88 73 84 85 87 85 83 86 88 96 93 98
68 68 68 69 72 72 75 76 71 62 67 70 70 73 80 84 90 87 79 75 93 92 73 92 94 92 83 82 85 85 89 88 93 97 99 87 86 83 84 92 82 79 97 99 99 99 94
70 70 71 73 73 80 71 73 68 64 72 75 73 77 77 79 93 84 84 85 94 68 90 70 86 92 93 82 89 90 90 92 89 92 86 95 87 92 80 90 92 91 79 95 95 97 94
71 71 75 79 87 71 70 71 68 70 72 70 76 91 98 92 93 92 89 99 79 82 79 87 82 90 93 90 86 89 94 90 80 92 92 97 98 83 83 80 87 83 87 65 72 69 88
73 75 78 82 84 70 67 68 69 74 72 74 97 96 96 94 92 95 97 85 78 70 77 71 80 84 96 93 90 85 87 80 82 80 84 88 95 94 81 80 79 84 67 76 85 85 72
74 75 77 86 74 67 66 66 70 73 81 78 98 98 94 93 93 98 98 91 77 69 73 70 80 92 87 92 88 83 87 82 78 78 84 84 84 93 81 90 88 80 76 76 75 86 78
73 73 75 83 72 68 66 66 68 70 76 91 98 100 97 93 100 99 98 78 71 77 77 74 75 79 84 86 92 94 89 87 65 68 85 81 88 99 92 87 86 88 85 75 83 78 90
78 80 79 76 71 69 66 67 74 77 86 96 98 98 98 94 99 98 82 80 81 81 78 77 76 74 66 78 88 87 86 78 68 73 84 76 87 94 86 74 74 85 85 76 77 81 88
85 82 81 72 67 68 70 76 80 84 83 97 98 100 100 99 89 88 92 91 92 78 77 72 67 68 77 82 83 90 90 83 76 74 67 66 84 77 90 75 85 91 88 83 81 90 82
68 67 72 65 62 66 70 81 88 90 87 90 98 98 91 98 98 86 90 90 82 84 75 66 71 70 77 85 85 92 90 86 77 69 80 70 90 88 84 88 86 85 84 88 90 81 82
68 68 68 63 62 74 77 85 88 81 71 96 98 97 86 88 77 90 86 90 73 78 78 76 73 69 76 78 78 87 87 86 81 78 82 80 96 84 86 78 77 82 82 85 88 85 83
71 68 66 62 70 75 82 87 90 78 76 98 95 82 83 91 84 83 95 90 66 79 83 69 67 77 76 77 76 79 79 80 80 79 83 82 88 91 91 85 75 78 73 78 83 84 80
69 67 64 64 68 78 83 86 90 86 84 96 94 85 82 92 78 71 89 88 83 81 85 86 78 77 84 78 69 66 71 73 77 87 74 83 91 92 97 82 85 68 65 68 74 70 76
67 66 66 67 75 80 86 91 92 85 84 97 96 79 82 86 78 86 88 93 91 90 90 88 88 88 83 75 78 82 84 78 81 89 88 82 90 92 97 98 74 72 71 64 74 68 81
66 67 69 68 75 86 92 88 89 85 77 92 92 87 82 89 93 88 92 89 93 94 93 93 89 88 80 83 80 90 92 84 92 87 85 83 80 82 78 98 88 63 71 65 59 67 80
68 69 70 78 83 87 94 87 80 74 68 75 83 84 80 95 96 92 92 89 90 91 96 94 91 85 82 89 93 91 88 84 92 91 76 90 88 93 78 80 84 69 68 62 72 65 80
70 71 78 84 88 88 93 88 77 70 68 70 75 80 82 98 92 89 87 83 88 90 92 88 85 82 88 86 85 92 90 90 89 87 88 84 93 98 94 95 90 74 69 66 58 83 81
71 76 86 94 91 92 93 87 72 72 68 66 74 72 71 87 88 82 83 82 85 84 93 92 84 88 88 93 94 94 90 90 87 91 86 87 81 88 84 81 67 83 78 83 80 80 84
Wind_Speed
21 20 21 22 22 23 25 26 24 27 25 25 17 13 11 12 13 13 13 11 14 13 11 6 5 5 3 2 9 6 7 8 5 2 4 7 6 4 9 4 10 14 8 9 12 10 11
22 22 21 22 23 23 25 24 26 26 29 25 18 15 11 12 12 13 13 12 12 13 10 5 5 6 3 4 4 4 5 3 10 9 13 8 5 6 6 9 13 7 12 12 6 13 7
21 22 22 22 23 23 24 24 25 27 27 23 26 14 12 11 9 13 13 13 11 13 8 6 4 2 3 11 3 5 6 7 11 13 11 10 4 3 3 7 13 11 3 10 5 9 8
21 22 22 22 22 22 23 23 25 25 28 26 29 17 12 11 8 11 11 12 10 12 9 6 1 2 6 5 4 7 4 8 5 6 2 3 6 1 4 8 2 7 4 8 2 11 15
23 24 22 22 22 22 22 23 24 25 25 25 29 26 13 9 9 7 10 12 10 11 10 6 2 3 8 7 3 6 3 4 5 2 2 3 6 0 6 8 3 4 3 5 4 6 16
22 23 22 22 23 22 22 22 22 23 26 27 28 30 12 8 5 5 9 11 8 6 6 1 2 1 4 4 4 5 6 4 3 1 3 4 3 2 7 3 5 7 5 5 5 1 6
26 25 24 23 22 23 23 23 22 22 24 26 25 24 11 8 6 4 2 2 2 3 4 7 6 3 1 5 1 4 5 4 2 2 4 2 2 3 4 4 2 8 7 7 4 2 4
27 26 25 25 24 23 23 23 23 22 22 24 23 23 14 8 4 4 5 3 6 1 5 7 2 2 1 2 3 5 4 3 4 3 2 1 2 4 7 3 4 7 12 7 9 6 5
27 28 27 26 25 25 24 23 22 21 21 23 23 23 8 6 3 3 3 5 4 1 2 1 3 3 2 3 2 5 4 1 3 5 4 2 2 4 6 3 4 2 6 6 8 8 5
30 30 31 31 29 27 25 23 22 22 20 20 23 20 5 7 2 3 2 5 5 2 4 2 1 1 3 2 3 3 3 1 3 1 3 2 2 1 5 2 4 3 4 5 15 7 2
28 28 29 29 28 30 27 25 22 22 19 18 21 16 6 12 1 3 2 6 1 4 3 2 2 3 3 2 2 2 2 3 1 2 3 3 3 5 3 3 5 3 3 4 5 6 6
29 29 29 31 30 28 28 25 24 22 19 17 17 15 17 7 1 3 1 6 4 6 7 4 3 3 2 3 1 3 2 4 1 3 2 3 2 2 2 2 3 0 6 9 8 4 2
30 29 30 31 30 29 25 24 24 19 20 18 17 20 14 6 3 5 3 3 3 4 1 4 4 4 1 2 2 1 1 3 2 2 2 4 2 5 2 4 0 4 3 4 3 2 2
31 31 32 32 30 25 23 22 22 19 17 15 19 20 10 7 4 6 2 3 2 3 6 3 4 4 3 4 1 2 2 1 2 3 2 3 5 3 5 2 3 1 4 1 4 3 2
32 31 31 30 36 21 17 20 21 17 15 16 18 5 4 5 5 3 4 4 7 6 6 8 4 4 2 3 3 2 3 3 3 6 1 3 3 2 4 4 2 1 3 2 6 3 3
32 32 32 30 25 19 16 18 19 15 14 13 3 4 3 9 9 4 4 6 4 3 4 5 5 4 4 5 4 2 3 2 2 5 2 1 4 3 1 4 3 2 1 4 4 2 4
32 33 33 30 22 17 17 17 16 13 14 12 2 3 4 10 5 4 6 6 5 5 3 5 5 5 4 5 5 4 4 2 2 2 2 2 3 3 1 2 1 3 2 4 5 3 4
33 33 33 24 16 18 18 16 15 13 15 11 2 4 6 10 4 3 4 5 3 4 3 3 5 4 7 6 4 4 5 3 1 4 3 1 4 3 2 1 1 2 2 2 5 2 2
35 34 33 22 17 17 15 17 16 16 15 3 3 3 4 4 4 5 1 3 2 3 4 3 4 3 3 5 5 3 4 1 3 2 4 3 3 4 7 6 5 4 3 4 4 4 1
35 31 21 18 16 15 15 15 23 24 28 8 5 4 3 3 1 5 4 4 5 4 3 4 3 3 3 3 5 4 2 2 1 2 4 5 4 3 6 3 2 2 3 2 5 4 3
28 24 19 16 17 16 19 21 28 36 16 9 3 4 3 9 8 4 6 4 6 4 2 3 2 2 4 4 3 3 2 2 3 3 3 4 4 4 5 3 2 1 2 3 3 3 5
26 22 19 17 17 18 21 25 33 36 26 5 6 4 3 3 9 6 6 4 7 2 5 3 4 3 2 6 6 7 6 2 3 4 3 3 2 2 3 5 4 1 2 3 2 3 4
23 20 19 17 17 20 19 22 21 31 13 4 1 3 5 7 11 10 5 5 11 6 5 5 6 5 4 3 3 4 3 5 4 4 3 3 4 4 3 3 4 4 3 4 3 2 5
19 18 19 20 19 21 24 24 7 14 8 4 2 3 4 2 6 10 7 4 6 2 7 3 4 4 2 5 5 6 9 9 9 7 4 4 4 3 1 5 3 4 1 1 4 3 4
21 20 20 21 23 24 27 22 24 18 15 6 2 3 3 4 3 5 6 4 6 6 6 4 4 1 3 3 5 5 5 3 5 6 5 3 4 4 3 1 5 1 1 3 3 2 1
20 20 22 24 24 24 25 8 26 23 19 6 4 2 2 6 3 4 4 4 4 4 4 3 3 2 4 4 4 3 3 3 0 3 4 5 5 5 2 1 1 4 2 1 2 4 4
23 23 25 25 26 22 11 25 23 18 16 6 3 2 4 5 2 3 3 4 3 5 5 2 2 2 3 3 3 2 1 2 4 6 5 2 3 4 3 1 7 4 3 0 3 4 2
24 26 26 28 24 11 16 21 19 16 13 6 1 3 4 4 3 4 5 3 3 2 6 4 4 3 3 4 3 3 3 4 3 3 4 5 5 3 2 2 6 0 2 3 4 1 3
24 27 29 21 9 6 24 22 17 16 10 6 4 3 3 7 4 1 2 3 3 2 5 3 3 2 4 5 1 3 2 2 4 3 1 2 6 6 7 6 2 1 1 1 4 5 3
Wind_Direction
341 342 343 342 337 339 339 341 345 341 334 335 261 246 253 271 283 289 293 297 297 291 275 299 323 0 56 8 250 251 297 320 147 223 258 291 234 207 233 191 245 228 250 223 250 258 224
341 340 341 342 340 342 338 338 339 341 341 335 286 232 243 261 272 282 290 294 299 290 284 295 310 115 103 265 249 259 314 243 233 227 261 237 244 234 269 204 235 210 222 237 237 218 193
335 334 335 337 340 339 338 336 337 337 333 323 333 226 228 248 266 279 285 296 299 285 284 280 295 194 213 253 246 320 302 237 253 262 241 208 247 279 185 271 209 240 328 213 205 211 241
330 331 333 332 332 331 334 338 338 339 340 337 334 286 212 237 252 275 294 298 294 284 280 262 290 110 252 254 265 293 292 281 56 43 124 181 191 313 293 302 198 174 233 202 162 183 268
325 325 327 327 327 329 331 332 334 333 334 332 330 327 211 211 242 277 294 295 289 277 270 254 132 160 274 313 321 296 255 285 100 159 255 297 139 29 334 231 83 139 171 139 192 192 277
321 324 325 327 327 326 328 329 332 333 335 331 337 344 218 209 222 274 298 298 301 293 273 189 185 257 287 299 295 296 268 240 192 86 60 56 56 3 230 152 188 156 123 112 92 219 101
321 320 321 321 324 325 328 327 327 331 334 331 340 339 253 194 222 239 3 15 11 285 245 204 171 199 247 293 234 260 289 355 277 128 60 76 199 238 225 207 190 114 127 102 85 15 166
317 317 319 319 320 321 322 325 325 326 332 331 333 328 289 195 196 263 114 213 232 236 273 230 181 187 140 100 307 288 350 63 21 341 69 327 328 18 289 212 159 126 123 106 101 133 36
319 318 317 316 316 316 318 320 324 321 326 326 325 324 283 183 205 169 183 242 306 44 266 278 168 148 184 114 277 289 12 29 64 12 8 123 347 335 9 12 144 76 155 162 131 147 117
317 318 317 317 313 313 311 313 318 318 323 319 325 325 222 139 206 155 215 235 252 75 50 227 145 146 110 93 277 285 331 79 33 330 341 44 336 70 60 17 354 92 348 160 138 122 76
309 309 308 308 308 307 307 308 310 314 317 312 323 343 285 158 101 211 268 157 83 56 354 216 140 130 114 166 241 303 298 37 23 306 54 6 32 131 94 301 322 82 19 70 86 92 101
311 309 308 306 302 297 297 304 301 307 309 309 319 318 343 183 121 271 100 74 41 43 257 145 113 196 148 195 6 308 357 51 165 316 201 115 224 347 82 157 299 210 83 58 45 47 38
309 309 308 305 299 294 288 293 291 295 304 303 317 312 324 164 173 161 132 75 33 170 225 182 180 170 190 148 145 253 46 15 65 56 57 8 27 346 68 91 147 100 94 105 122 162 145
309 307 306 300 296 287 291 286 289 292 296 296 311 300 285 161 89 129 113 74 168 155 199 155 129 120 168 168 52 187 90 314 249 191 113 119 4 354 324 61 151 157 105 117 124 145 126
309 310 307 301 300 298 296 282 284 290 282 307 310 290 150 146 140 153 132 183 225 198 186 131 102 110 244 196 130 121 209 235 218 193 138 111 28 156 340 11 333 205 52 301 120 84 100
311 312 306 313 294 297 292 284 281 271 286 318 326 316 142 127 139 148 198 242 252 201 155 105 128 153 164 193 118 182 203 225 258 198 202 186 89 44 169 30 337 325 88 23 7 88 68
312 310 310 311 292 289 288 288 278 282 289 323 291 256 159 130 126 160 209 227 272 247 184 135 142 138 174 178 148 152 226 286 197 211 176 134 95 305 64 51 142 34 22 58 100 56 129
315 312 311 321 300 289 290 282 282 270 286 277 208 226 157 143 156 187 207 199 252 229 223 116 110 118 164 172 124 191 205 248 277 155 159 186 121 86 108 286 221 130 91 100 110 200 55
315 310 308 305 293 290 289 288 282 283 253 223 209 182 141 156 180 186 188 247 279 229 170 124 148 170 167 162 118 133 160 259 229 130 165 191 17 55 357 358 2 30 42 94 84 54 329
310 312 311 302 301 302 304 308 290 268 260 220 147 159 130 187 200 128 133 238 244 249 129 112 124 133 123 100 33 136 124 31 35 100 96 92 78 137 174 200 152 137 145 127 96 94 177
318 326 320 316 311 317 321 302 288 280 207 117 148 163 162 177 193 159 157 203 188 159 78 108 86 183 145 106 79 97 67 23 46 24 64 87 92 72 42 55 48 82 145 152 106 173 138
325 325 319 321 324 322 310 309 312 136 138 86 128 151 95 134 173 171 198 229 178 105 116 162 141 159 115 140 178 190 138 162 173 37 72 18 134 130 40 1 22 150 166 157 206 205 263
325 323 326 327 318 315 318 312 342 141 130 95 89 33 101 161 167 171 190 226 177 127 33 124 148 103 84 164 140 115 93 97 86 118 99 69 110 59 295 342 320 334 233 195 183 198 148
341 335 329 328 325 326 311 304 291 135 102 102 94 102 104 152 177 183 163 186 166 112 128 37 75 99 154 108 101 52 55 66 58 36 56 100 81 68 270 359 31 248 9 141 199 251 244
345 340 331 324 324 319 316 319 154 120 102 86 69 74 115 113 154 199 166 119 90 58 65 74 25 313 141 64 71 59 0 46 39 36 28 94 115 97 103 235 286 82 111 160 166 287 188
337 331 329 326 328 329 324 140 119 112 108 92 61 95 129 126 221 313 141 156 123 101 45 51 30 20 61 77 76 117 175 154 59 52 29 65 99 112 152 104 229 251 307 33 118 317 13
333 334 330 327 329 334 85 110 104 99 88 97 103 97 96 106 351 328 99 146 117 86 94 112 113 65 43 77 80 127 174 172 153 156 173 121 72 135 156 244 284 249 271 27 74 241 64
333 332 332 330 314 322 151 113 106 92 79 76 120 33 131 99 19 358 6 73 64 93 130 191 78 359 47 72 120 182 142 209 102 171 179 162 132 186 113 120 277 237 74 148 199 65 105
336 338 341 335 341 162 144 127 110 95 97 88 54 338 26 78 132 57 75 68 3 337 124 32 141 132 161 91 40 121 137 107 148 207 329 198 174 180 179 210 249 16 110 159 175 146 143